TimeCST,TemperatureF,Dew PointF,Humidity,Sea Level PressureIn,VisibilityMPH,Wind Direction,Wind SpeedMPH,Gust SpeedMPH,PrecipitationIn,Events,Conditions,WindDirDegrees,DateUTC
12:52 AM,28.0,21.9,78,30.48,10.0,Calm,Calm,-,N/A,,Clear,0,2012-11-13 06:52:00
1:52 AM,27.0,21.9,81,30.48,10.0,South,3.5,-,N/A,,Clear,170,2012-11-13 07:52:00
2:52 AM,27.0,23.0,85,30.49,10.0,South,3.5,-,N/A,,Clear,180,2012-11-13 08:52:00
3:52 AM,26.1,21.9,84,30.48,10.0,SSE,5.8,-,N/A,,Clear,150,2012-11-13 09:52:00
4:52 AM,25.0,21.0,85,30.49,10.0,South,3.5,-,N/A,,Clear,170,2012-11-13 10:52:00
5:52 AM,26.1,21.9,84,30.50,10.0,SSE,5.8,-,N/A,,Clear,160,2012-11-13 11:52:00
6:52 AM,27.0,23.0,85,30.51,10.0,South,5.8,-,N/A,,Clear,170,2012-11-13 12:52:00
7:52 AM,30.0,26.1,85,30.52,10.0,SSE,6.9,-,N/A,,Clear,150,2012-11-13 13:52:00
8:52 AM,37.9,30.0,73,30.52,10.0,SSE,3.5,-,N/A,,Clear,160,2012-11-13 14:52:00
9:52 AM,45.0,33.1,63,30.51,10.0,South,4.6,-,N/A,,Clear,180,2012-11-13 15:52:00
10:52 AM,48.9,28.9,46,30.50,10.0,South,3.5,-,N/A,,Clear,180,2012-11-13 16:52:00
11:52 AM,51.1,25.0,36,30.47,10.0,Variable,3.5,-,N/A,,Clear,0,2012-11-13 17:52:00
12:52 PM,51.1,26.1,38,30.43,10.0,SW,3.5,-,N/A,,Clear,230,2012-11-13 18:52:00
1:52 PM,54.0,25.0,33,30.41,10.0,Calm,Calm,-,N/A,,Clear,0,2012-11-13 19:52:00
2:52 PM,54.0,25.0,33,30.40,10.0,Calm,Calm,-,N/A,,Clear,0,2012-11-13 20:52:00
3:52 PM,52.0,30.0,43,30.39,10.0,Calm,Calm,-,N/A,,Clear,0,2012-11-13 21:52:00
4:52 PM,48.9,26.1,41,30.38,10.0,SE,3.5,-,N/A,,Clear,140,2012-11-13 22:52:00
5:52 PM,45.0,25.0,46,30.39,10.0,ESE,5.8,-,N/A,,Clear,110,2012-11-13 23:52:00
6:52 PM,43.0,26.1,51,30.41,10.0,ESE,4.6,-,N/A,,Clear,110,2012-11-14 00:52:00
7:52 PM,42.1,26.1,53,30.43,10.0,SSE,3.5,-,N/A,,Clear,150,2012-11-14 01:52:00
8:52 PM,37.9,27.0,65,30.43,10.0,SSE,5.8,-,N/A,,Clear,150,2012-11-14 02:52:00
9:52 PM,39.0,27.0,62,30.43,10.0,South,5.8,-,N/A,,Clear,170,2012-11-14 03:52:00
10:37 PM,39.2,28.4,65,30.41,10.0,SSE,6.9,-,N/A,,Clear,150,2012-11-14 04:37:00
10:52 PM,39.9,28.9,65,30.42,10.0,SSE,8.1,-,N/A,,Clear,150,2012-11-14 04:52:00
11:52 PM,41.0,28.0,60,30.41,10.0,SSE,6.9,-,N/A,,Clear,150,2012-11-14 05:52:00